z/d,0,0,50,50,100,100,150,150,200,200,300,300,400,400,500,500,600,600,750,750,1000,1000,1250,1250,1500,1500,1750,1750,1900,1900,2000,2000
2019.02.10-01:00,1.80,260.29,1.81,263.04,1.73,274.33,1.77,276.75,1.66,271.31,1.43,277.81,1.29,274.13,1.35,285.15,1.36,286.11,1.34,282.42,1.22,278.77,.97,280.59,.77,273.81,.82,257.92,.89,243.08,.26,229.54
2019.02.10-02:00,1.99,260.32,1.99,262.70,1.78,272.12,1.76,276.81,1.68,272.40,1.43,279.92,1.31,274.25,1.31,283.41,1.32,281.91,1.33,280.21,1.21,278.02,.97,279.81,.80,273.82,.82,260.96,.88,248.11,.24,234.29
2019.02.10-03:00,2.13,261.55,2.12,263.92,1.83,270.05,1.73,276.57,1.67,274.19,1.43,280.55,1.35,275.07,1.31,281.03,1.31,277.45,1.33,277.77,1.21,276.62,.98,278.48,.83,273.41,.83,262.77,.88,252.58,.24,239.27
2019.02.10-04:00,2.22,265.14,2.21,267.33,1.91,269.30,1.71,275.20,1.65,275.47,1.44,280.54,1.41,276.44,1.35,279.46,1.35,274.27,1.35,275.72,1.22,275.08,.99,276.65,.87,272.26,.85,262.91,.88,255.19,.23,243.22
2019.02.10-05:00,2.23,269.73,2.23,272.72,1.95,270.83,1.72,273.01,1.63,275.14,1.50,280.48,1.49,278.23,1.40,278.81,1.40,272.79,1.37,274.34,1.24,273.90,1.00,274.63,.89,270.45,.88,261.93,.88,255.75,.22,245.71
2019.02.10-06:00,2.18,273.26,2.20,277.89,1.96,272.81,1.74,270.52,1.62,273.18,1.58,280.98,1.56,280.54,1.46,279.19,1.46,272.96,1.39,273.89,1.25,273.34,1.01,273.02,.90,268.47,.90,260.78,.87,254.99,.22,246.99
2019.02.10-07:00,2.07,274.75,2.09,281.08,1.92,273.66,1.79,268.94,1.67,271.50,1.68,282.22,1.63,283.46,1.50,280.71,1.50,274.39,1.41,274.23,1.24,273.29,1.02,271.78,.91,266.60,.90,259.90,.85,253.78,.22,247.24
2019.02.10-08:00,1.96,275.32,1.98,282.95,1.90,274.34,1.86,269.68,1.75,272.11,1.75,283.75,1.67,286.62,1.53,282.73,1.51,276.08,1.42,274.79,1.23,273.65,1.01,270.48,.91,264.91,.90,259.32,.83,252.60,.21,246.43
2019.02.10-09:00,1.87,275.80,1.88,284.16,1.90,275.83,1.91,272.93,1.84,275.45,1.77,285.23,1.66,288.87,1.52,284.44,1.49,277.38,1.41,275.16,1.23,274.34,1.02,269.10,.91,263.45,.88,258.88,.80,251.63,.20,244.62
2019.02.10-10:00,1.81,274.99,1.80,283.28,1.89,277.05,1.91,276.67,1.87,279.31,1.73,285.99,1.59,289.60,1.49,285.34,1.47,278.19,1.39,275.36,1.23,275.46,1.04,268.52,.93,263.15,.87,259.55,.79,252.09,.20,243.31
2019.02.10-11:00,1.82,273.89,1.79,280.86,1.88,278.89,1.86,279.16,1.83,281.76,1.66,286.14,1.51,288.95,1.44,285.12,1.45,278.43,1.35,274.95,1.21,276.38,1.06,269.18,.95,264.58,.87,262.17,.77,254.84,.20,244.53
2019.02.10-12:00,1.89,274.49,1.84,279.18,1.86,281.70,1.80,280.70,1.76,283.37,1.58,285.92,1.44,287.23,1.39,283.26,1.42,277.85,1.32,273.70,1.19,276.40,1.09,270.78,.98,267.34,.87,266.28,.76,258.95,.19,247.36
2019.02.10-13:00,1.96,274.87,1.93,277.87,1.83,283.44,1.75,281.73,1.70,284.66,1.52,285.87,1.38,285.64,1.37,280.76,1.40,276.80,1.32,272.33,1.17,275.65,1.11,272.67,1.00,270.66,.87,270.62,.75,262.52,.18,249.45
2019.02.10-14:00,2.03,275.47,2.02,277.07,1.82,283.55,1.72,282.11,1.66,285.62,1.48,286.16,1.37,285.45,1.39,279.38,1.42,276.33,1.35,271.66,1.19,274.63,1.12,273.94,1.00,273.23,.85,273.39,.73,263.35,.17,246.97
2019.02.10-15:00,2.11,276.54,2.11,277.35,1.86,282.52,1.72,281.36,1.65,286.37,1.46,286.31,1.40,286.48,1.43,279.43,1.45,277.00,1.40,272.28,1.22,273.90,1.13,274.31,.99,274.12,.82,273.62,.70,260.66,.17,239.25
2019.02.10-16:00,2.15,278.98,2.15,279.32,1.90,281.35,1.73,279.69,1.64,286.53,1.45,285.65,1.43,287.52,1.49,280.55,1.48,278.41,1.46,273.83,1.28,273.68,1.16,274.10,.98,273.32,.79,271.58,.70,256.05,.19,231.69
2019.02.10-17:00,2.13,283.03,2.14,282.97,1.87,280.27,1.73,277.79,1.61,285.51,1.45,284.23,1.46,287.60,1.53,282.07,1.52,279.98,1.50,275.40,1.35,273.90,1.20,273.76,1.00,271.84,.78,268.53,.73,252.30,.21,228.46
2019.02.10-18:00,2.11,287.09,2.11,286.63,1.84,278.19,1.75,275.90,1.58,283.10,1.48,282.13,1.48,286.45,1.56,282.99,1.54,281.20,1.53,276.19,1.40,274.49,1.24,273.87,1.03,271.16,.78,266.06,.77,250.75,.23,228.67
2019.02.10-19:00,2.09,289.99,2.07,289.03,1.85,276.13,1.82,275.18,1.59,280.57,1.53,280.38,1.50,284.65,1.58,282.95,1.57,281.61,1.54,276.17,1.42,275.14,1.26,274.35,1.04,271.07,.78,263.70,.79,250.07,.24,229.80
2019.02.10-20:00,2.07,291.73,2.03,290.23,1.92,276.82,1.90,276.12,1.64,279.11,1.58,279.63,1.50,282.73,1.59,282.07,1.59,281.23,1.57,276.12,1.42,275.57,1.25,274.74,1.04,270.72,.78,260.53,.80,248.93,.24,230.16
2019.02.10-21:00,1.99,291.82,1.96,290.15,1.96,279.55,1.97,278.20,1.70,279.32,1.63,280.11,1.53,281.21,1.61,280.87,1.61,280.74,1.58,276.50,1.40,275.79,1.21,274.63,1.01,269.85,.79,257.09,.80,247.53,.23,230.00
2019.02.10-22:00,1.90,289.92,1.89,288.90,1.96,282.09,2.01,280.83,1.75,280.78,1.69,281.43,1.59,280.26,1.64,279.99,1.63,280.47,1.57,277.06,1.35,275.88,1.15,273.83,.97,268.61,.80,254.40,.80,246.47,.23,229.89
2019.02.10-23:00,1.85,287.52,1.86,287.27,1.95,284.10,2.03,283.99,1.80,282.86,1.73,282.73,1.65,279.68,1.69,279.61,1.64,280.36,1.54,277.41,1.31,275.86,1.09,272.30,.93,267.16,.81,252.72,.79,245.80,.22,229.79
2019.02.10-24:00,1.87,285.99,1.88,285.89,1.97,285.67,2.04,287.01,1.82,284.84,1.75,283.67,1.71,279.39,1.72,279.50,1.62,280.29,1.51,277.16,1.28,275.56,1.04,270.15,.89,265.61,.81,252.05,.78,245.39,.21,229.65
2019.02.11-01:00,1.91,285.04,1.92,284.94,1.98,286.06,2.02,289.04,1.83,286.19,1.78,284.94,1.74,279.76,1.74,279.63,1.59,280.27,1.48,276.12,1.26,274.72,1.03,267.85,.87,264.28,.81,252.65,.77,245.63,.21,230.12
2019.02.11-02:00,1.94,283.87,1.95,284.01,1.96,285.04,1.96,289.80,1.80,287.06,1.80,286.83,1.73,281.12,1.73,280.01,1.56,280.12,1.46,274.66,1.27,273.34,1.06,266.06,.88,263.31,.82,254.38,.77,246.79,.21,231.75
2019.02.11-03:00,1.93,281.61,1.93,282.03,1.92,282.38,1.85,288.28,1.74,287.24,1.77,287.66,1.70,282.78,1.71,280.68,1.56,279.86,1.46,273.85,1.29,272.15,1.12,265.50,.92,263.02,.85,256.85,.80,248.88,.22,234.67
2019.02.11-04:00,1.87,278.58,1.86,279.05,1.88,279.57,1.72,283.92,1.65,286.49,1.72,286.83,1.69,284.25,1.70,281.59,1.57,279.78,1.48,273.90,1.34,271.57,1.18,265.52,.98,262.98,.89,258.89,.85,250.84,.22,237.93
2019.02.11-05:00,1.86,277.59,1.84,277.73,1.88,279.13,1.69,279.21,1.62,284.50,1.73,285.49,1.74,285.54,1.73,282.56,1.62,280.02,1.51,274.10,1.35,271.18,1.20,264.82,1.02,262.24,.92,259.20,.88,251.14,.23,239.48
2019.02.11-06:00,1.94,278.74,1.90,278.52,1.91,279.87,1.77,276.46,1.67,281.91,1.80,284.46,1.80,285.88,1.79,283.02,1.65,280.19,1.53,274.12,1.34,270.46,1.20,263.62,1.03,261.37,.94,259.04,.90,251.07,.23,240.77
2019.02.11-07:00,2.03,280.36,1.97,279.93,1.98,281.35,1.93,276.49,1.77,279.99,1.88,283.82,1.80,284.01,1.84,282.59,1.65,279.65,1.53,273.73,1.30,268.77,1.20,262.57,1.02,261.10,.94,259.74,.89,252.17,.23,243.49
2019.02.11-08:00,2.07,280.74,2.02,280.50,2.06,283.64,2.09,279.20,1.89,279.37,1.94,283.54,1.80,280.59,1.86,281.79,1.64,278.16,1.52,272.70,1.28,266.11,1.20,261.86,1.01,261.29,.91,261.04,.86,254.27,.22,246.79
2019.02.11-09:00,2.09,279.92,2.07,280.49,2.10,285.39,2.17,282.53,1.98,279.62,1.94,283.06,1.83,277.60,1.83,280.41,1.60,275.73,1.49,271.21,1.27,263.36,1.20,261.79,.99,262.20,.86,262.79,.81,257.03,.20,249.94
2019.02.11-10:00,2.10,280.34,2.11,281.21,2.09,286.15,2.18,284.47,2.06,280.69,1.92,282.09,1.86,275.32,1.78,278.08,1.57,272.81,1.46,269.43,1.27,261.26,1.19,262.23,.97,263.87,.80,264.95,.74,260.12,.18,252.55
2019.02.11-11:00,2.12,283.47,2.12,283.75,2.09,286.58,2.17,285.34,2.11,282.18,1.89,280.60,1.88,272.93,1.72,275.02,1.56,269.88,1.43,267.65,1.28,260.27,1.16,262.78,.93,265.80,.73,267.12,.67,262.93,.17,253.86
2019.02.11-12:00,2.20,287.69,2.16,287.41,2.11,286.53,2.18,286.41,2.10,282.91,1.84,278.47,1.87,270.31,1.66,271.58,1.56,267.29,1.41,266.15,1.28,260.47,1.14,263.21,.89,267.37,.67,268.57,.60,264.42,.15,253.12
2019.02.11-13:00,2.33,291.07,2.23,290.17,2.19,286.59,2.20,287.45,2.06,283.05,1.81,276.15,1.85,268.16,1.62,268.12,1.55,265.16,1.38,264.63,1.27,261.16,1.12,263.58,.86,268.30,.63,268.97,.56,264.08,.14,250.56
2019.02.11-14:00,2.46,292.92,2.34,292.07,2.28,287.32,2.19,287.93,2.01,283.39,1.79,274.47,1.82,267.42,1.58,265.14,1.54,263.61,1.35,262.83,1.26,261.74,1.11,263.96,.84,268.44,.61,268.29,.54,261.94,.14,246.77
2019.02.11-15:00,2.52,293.43,2.43,292.74,2.36,287.75,2.18,287.42,1.97,283.42,1.79,274.08,1.79,268.29,1.56,263.11,1.55,262.84,1.34,261.05,1.25,262.31,1.09,264.32,.82,268.09,.60,267.51,.55,259.50,.15,243.17
2019.02.11-16:00,2.41,292.19,2.32,291.11,2.31,286.79,2.08,286.23,1.85,282.25,1.75,275.60,1.74,269.76,1.55,262.28,1.55,262.13,1.34,259.80,1.25,263.31,1.11,264.87,.85,268.44,.64,269.07,.60,260.75,.17,245.12
2019.02.11-17:00,2.04,289.82,1.92,288.82,2.04,285.49,1.85,285.41,1.65,280.05,1.63,278.23,1.65,270.63,1.54,263.67,1.56,261.95,1.39,259.99,1.29,264.60,1.18,265.54,.93,268.87,.74,271.34,.71,264.00,.19,251.15
2019.02.11-18:00,1.75,288.94,1.66,288.77,1.86,287.01,1.70,285.05,1.57,279.89,1.57,279.55,1.62,270.87,1.60,266.21,1.62,264.06,1.47,261.54,1.33,265.50,1.22,265.60,.95,267.64,.77,270.98,.76,263.99,.19,251.87
2019.02.11-19:00,1.67,286.99,1.65,288.20,1.85,287.68,1.74,283.48,1.66,279.16,1.62,278.44,1.69,271.23,1.70,268.18,1.68,266.59,1.53,263.65,1.34,265.86,1.17,265.46,.90,266.22,.72,269.96,.72,262.88,.18,248.79
2019.02.11-20:00,1.66,284.48,1.68,286.96,1.86,286.77,1.81,281.34,1.77,277.37,1.70,276.02,1.79,271.60,1.79,269.27,1.71,267.86,1.57,266.26,1.34,266.01,1.12,265.84,.84,265.85,.66,269.85,.67,262.96,.16,246.03
2019.02.11-21:00,1.69,283.31,1.73,285.84,1.91,285.74,1.89,280.15,1.87,275.97,1.78,274.10,1.88,271.90,1.84,269.33,1.72,268.59,1.58,268.40,1.34,266.05,1.07,266.36,.79,265.82,.60,270.01,.61,263.58,.15,243.05
2019.02.11-22:00,1.74,283.08,1.80,285.10,1.97,285.42,1.97,280.71,1.95,276.06,1.86,273.68,1.94,272.22,1.85,268.98,1.73,269.45,1.57,269.48,1.32,265.87,1.04,266.74,.74,265.47,.55,269.50,.56,263.64,.15,239.35
2019.02.11-23:00,1.83,282.93,1.90,284.59,2.01,285.57,2.02,282.78,1.99,277.85,1.90,274.90,1.97,273.16,1.84,269.01,1.71,270.32,1.55,269.93,1.31,265.71,1.01,266.72,.72,264.50,.51,267.55,.52,262.23,.15,235.74
2019.02.11-24:00,2.02,283.65,2.05,284.82,2.06,285.16,2.04,284.90,1.96,279.61,1.91,276.68,1.94,274.77,1.81,269.66,1.68,271.29,1.52,270.22,1.31,265.87,.99,266.26,.70,263.22,.49,264.67,.49,259.72,.16,233.40
2019.02.12-01:00,2.17,284.26,2.20,285.71,2.13,284.32,2.04,285.86,1.93,279.97,1.90,278.26,1.89,276.59,1.76,270.74,1.63,272.24,1.48,270.07,1.29,266.13,.98,265.45,.70,262.34,.49,262.67,.49,257.81,.16,233.39
2019.02.12-02:00,2.30,284.16,2.34,286.40,2.25,284.89,2.07,286.25,1.96,279.86,1.91,280.01,1.82,278.07,1.71,272.12,1.56,272.97,1.44,269.34,1.28,266.04,.97,264.03,.70,261.58,.49,261.66,.49,256.75,.17,234.83
2019.02.12-03:00,2.42,284.18,2.47,286.83,2.36,286.87,2.11,286.18,2.01,280.30,1.91,282.34,1.76,279.04,1.68,273.85,1.51,273.61,1.42,268.60,1.26,265.45,.97,262.02,.71,260.53,.50,261.01,.50,256.09,.17,236.71
2019.02.12-04:00,2.50,283.95,2.57,286.85,2.45,287.52,2.21,286.03,2.08,281.59,1.88,284.76,1.72,279.97,1.65,275.63,1.47,273.96,1.42,268.05,1.26,264.32,.99,260.04,.73,259.68,.52,261.11,.51,256.25,.17,239.21
2019.02.12-05:00,2.44,284.28,2.53,287.51,2.47,287.57,2.23,287.50,2.08,283.92,1.81,286.74,1.63,281.08,1.62,277.00,1.45,274.23,1.43,267.48,1.28,262.90,1.04,258.79,.79,259.83,.57,262.68,.56,258.20,.18,244.13
2019.02.12-06:00,2.05,287.59,2.15,290.43,2.23,289.98,2.03,291.23,1.92,287.39,1.67,288.30,1.51,281.64,1.60,278.02,1.47,274.84,1.46,267.05,1.36,262.09,1.16,258.89,.91,261.25,.68,265.37,.67,261.30,.20,250.37
2019.02.12-07:00,1.95,288.17,2.00,290.05,2.16,290.02,2.02,290.59,1.90,286.53,1.64,286.22,1.49,279.96,1.60,278.17,1.51,274.11,1.51,266.18,1.40,261.76,1.18,259.90,.92,263.17,.69,268.25,.68,263.75,.19,254.29
2019.02.12-08:00,1.94,286.95,1.96,288.63,2.17,288.63,2.07,288.12,1.96,284.39,1.67,282.67,1.51,277.82,1.61,277.51,1.55,272.88,1.55,265.46,1.41,261.69,1.17,261.44,.90,265.51,.66,271.22,.65,266.10,.17,257.74
2019.02.12-09:00,1.95,285.10,1.96,287.11,2.19,287.04,2.11,286.08,2.01,283.16,1.70,279.13,1.53,275.77,1.63,276.03,1.59,271.63,1.59,265.16,1.41,261.82,1.14,263.43,.86,268.33,.63,274.63,.61,268.87,.15,260.19
2019.02.12-10:00,1.98,284.55,1.99,286.38,2.19,286.55,2.14,285.22,2.06,283.06,1.74,276.24,1.55,273.60,1.64,274.13,1.61,270.49,1.61,265.08,1.41,262.23,1.11,265.64,.81,271.18,.58,278.24,.56,271.81,.14,260.56
2019.02.12-11:00,2.00,285.43,2.02,286.78,2.16,287.54,2.16,286.15,2.10,284.28,1.81,275.01,1.60,271.68,1.63,272.33,1.61,269.51,1.61,265.07,1.41,263.00,1.08,267.68,.76,273.36,.52,281.25,.50,274.10,.13,258.06
2019.02.12-12:00,2.01,286.72,2.04,287.40,2.13,289.33,2.14,288.31,2.10,286.34,1.88,276.08,1.65,270.87,1.62,271.06,1.58,268.69,1.61,265.18,1.41,264.02,1.06,269.35,.72,274.60,.46,283.34,.44,275.56,.12,253.86
2019.02.12-13:00,2.03,287.21,2.07,287.49,2.10,290.66,2.12,289.72,2.08,287.95,1.90,278.48,1.69,270.83,1.60,270.60,1.54,267.85,1.59,265.62,1.42,265.48,1.03,271.14,.68,275.67,.40,285.04,.39,276.98,.11,250.37
2019.02.12-14:00,2.03,286.45,2.08,286.87,2.10,290.87,2.11,289.91,2.06,288.89,1.87,280.79,1.75,271.53,1.61,271.57,1.52,267.48,1.57,266.51,1.42,267.51,1.01,273.03,.64,276.17,.35,284.96,.35,277.04,.10,246.84
2019.02.12-15:00,2.05,284.84,2.10,285.40,2.11,289.61,2.11,289.63,2.04,289.48,1.84,282.29,1.80,273.27,1.63,274.14,1.51,268.01,1.53,267.63,1.42,269.88,.98,274.71,.62,275.49,.30,280.94,.32,273.98,.10,242.57
2019.02.12-16:00,2.09,284.22,2.11,284.06,2.13,287.70,2.12,289.38,2.03,289.90,1.82,283.49,1.82,275.75,1.66,277.74,1.54,269.80,1.51,268.70,1.42,272.01,.96,275.68,.61,273.58,.29,272.76,.31,267.86,.11,239.05
2019.02.12-17:00,2.09,284.80,2.06,283.89,2.15,286.62,2.10,288.84,2.00,289.90,1.80,284.52,1.79,278.02,1.68,280.97,1.58,272.63,1.52,269.99,1.42,273.59,.95,275.85,.63,271.44,.31,264.95,.33,262.07,.13,238.86
2019.02.12-18:00,2.07,287.14,2.03,285.49,2.15,287.73,2.09,287.90,1.96,289.18,1.78,284.65,1.76,278.95,1.69,282.48,1.64,275.01,1.57,271.62,1.43,274.72,.94,275.53,.64,270.21,.35,261.66,.37,259.50,.14,241.66
2019.02.12-19:00,2.03,289.50,2.01,287.78,2.12,289.55,2.13,286.89,1.94,287.42,1.77,283.42,1.77,278.39,1.71,282.13,1.68,276.04,1.61,273.32,1.42,275.74,.91,275.12,.65,270.45,.38,262.97,.41,260.62,.14,247.09
2019.02.12-20:00,2.01,289.90,2.01,288.67,2.13,289.73,2.20,286.19,1.95,285.15,1.81,281.75,1.81,277.36,1.76,280.79,1.72,276.18,1.65,274.84,1.41,276.76,.87,274.57,.64,271.43,.40,266.19,.43,263.38,.14,253.21
2019.02.12-21:00,2.03,288.81,2.05,288.18,2.17,288.68,2.26,286.19,1.99,283.29,1.88,280.68,1.87,276.52,1.83,279.53,1.76,276.53,1.66,275.74,1.37,277.61,.83,273.50,.61,272.21,.40,269.47,.43,266.34,.14,258.53
2019.02.12-22:00,2.05,287.72,2.08,287.54,2.21,287.83,2.28,286.64,2.05,282.16,1.96,280.52,1.93,276.50,1.90,279.20,1.80,277.71,1.66,276.12,1.33,278.05,.79,271.83,.58,272.34,.38,272.21,.41,269.01,.13,262.40
2019.02.12-23:00,2.07,286.86,2.10,286.81,2.20,287.61,2.27,287.23,2.10,281.84,2.01,281.28,1.98,277.72,1.94,280.06,1.83,279.51,1.66,276.64,1.30,277.86,.77,269.82,.54,271.62,.36,274.05,.39,270.94,.12,263.94
2019.02.12-24:00,2.13,285.74,2.15,285.46,2.18,287.13,2.24,287.31,2.13,282.01,2.02,282.34,2.01,279.59,1.93,281.61,1.83,281.18,1.67,277.80,1.27,277.45,.76,268.46,.50,270.95,.32,275.73,.35,272.73,.11,263.48
2019.02.13-01:00,2.22,285.02,2.24,284.36,2.20,286.17,2.22,286.93,2.15,282.58,2.00,282.99,2.01,281.28,1.89,283.22,1.80,282.72,1.67,279.40,1.24,277.19,.75,268.02,.47,270.45,.29,276.63,.31,273.76,.10,260.96
2019.02.13-02:00,2.33,285.25,2.36,284.39,2.26,285.15,2.24,286.50,2.16,283.13,1.95,282.98,1.99,282.46,1.82,284.37,1.75,284.47,1.66,280.78,1.22,277.02,.75,268.17,.46,270.16,.26,276.10,.28,273.48,.09,256.72
2019.02.13-03:00,2.41,286.42,2.47,285.68,2.37,284.90,2.28,286.53,2.19,283.68,1.93,282.46,1.96,283.31,1.76,284.80,1.69,285.96,1.63,281.48,1.20,276.75,.75,268.08,.45,269.56,.24,272.60,.25,270.46,.09,250.43
2019.02.13-04:00,2.41,288.17,2.52,287.77,2.44,285.55,2.32,287.35,2.22,284.53,1.92,281.96,1.95,284.42,1.73,284.95,1.64,286.33,1.60,281.79,1.20,276.33,.76,267.31,.46,268.36,.23,265.32,.24,263.83,.09,243.13
2019.02.13-05:00,2.34,290.08,2.48,290.04,2.47,286.56,2.33,288.76,2.22,285.62,1.92,281.89,1.93,286.19,1.72,285.40,1.62,285.39,1.59,282.08,1.21,275.86,.79,266.15,.47,267.38,.24,257.40,.25,256.21,.10,237.54
2019.02.13-06:00,2.13,292.10,2.30,292.50,2.41,288.53,2.26,290.63,2.18,287.41,1.91,282.61,1.87,288.16,1.71,286.15,1.63,284.15,1.58,282.45,1.25,275.76,.85,265.28,.53,267.31,.30,253.61,.30,251.98,.12,236.37
2019.02.13-07:00,1.94,291.34,2.13,292.55,2.34,290.11,2.21,291.28,2.13,288.17,1.93,283.68,1.80,289.18,1.68,286.13,1.68,283.37,1.58,282.66,1.28,275.98,.91,265.61,.56,268.95,.35,253.99,.34,251.29,.13,237.30
2019.02.13-08:00,1.92,287.42,2.10,289.56,2.35,290.17,2.23,290.44,2.15,287.33,1.95,284.29,1.75,289.12,1.67,284.87,1.74,283.15,1.58,282.41,1.27,275.89,.93,267.07,.56,271.65,.36,255.74,.35,251.54,.13,238.30
2019.02.13-09:00,2.01,284.32,2.18,286.76,2.40,289.89,2.26,289.42,2.20,286.65,1.96,284.24,1.71,287.71,1.68,283.24,1.79,283.02,1.58,281.31,1.25,275.35,.93,269.37,.54,274.92,.35,258.48,.35,252.68,.12,240.09
2019.02.13-10:00,2.11,283.76,2.27,286.06,2.42,290.23,2.28,289.09,2.22,286.98,1.96,283.70,1.69,285.31,1.70,281.80,1.82,282.11,1.59,279.57,1.23,274.51,.91,272.22,.51,278.37,.34,261.69,.34,254.48,.11,242.24
2019.02.13-11:00,2.21,284.86,2.36,286.97,2.41,291.16,2.29,289.26,2.19,287.43,1.96,282.79,1.68,282.83,1.70,280.50,1.83,280.33,1.61,277.70,1.23,273.67,.88,275.34,.47,282.17,.32,264.99,.33,256.51,.10,243.81
2019.02.13-12:00,2.27,286.48,2.47,288.78,2.42,292.04,2.33,289.50,2.17,287.21,1.95,282.03,1.66,280.62,1.70,279.08,1.83,278.32,1.61,276.11,1.25,273.10,.83,278.16,.41,286.26,.28,267.71,.29,258.07,.09,243.98
2019.02.13-13:00,2.29,288.32,2.57,290.80,2.45,292.25,2.37,289.56,2.16,286.69,1.92,281.71,1.64,278.64,1.68,277.53,1.80,276.75,1.61,275.25,1.28,272.89,.78,279.88,.35,290.00,.23,268.80,.25,258.18,.07,241.64
2019.02.13-14:00,2.32,290.12,2.65,291.83,2.49,291.72,2.41,289.44,2.18,286.43,1.88,281.55,1.63,276.66,1.66,275.76,1.75,275.59,1.60,275.12,1.30,273.30,.75,280.67,.29,293.48,.18,268.82,.20,257.36,.06,237.31
2019.02.13-15:00,2.44,291.36,2.72,291.81,2.54,290.95,2.45,289.59,2.21,286.69,1.85,281.64,1.63,275.23,1.63,273.88,1.68,274.41,1.56,275.26,1.32,274.44,.75,281.34,.24,295.23,.13,265.35,.15,253.56,.05,229.57
2019.02.13-16:00,2.49,291.70,2.73,291.08,2.59,290.03,2.47,290.09,2.25,287.47,1.83,282.26,1.64,275.31,1.62,272.65,1.63,273.49,1.52,275.53,1.32,276.33,.77,282.66,.18,290.65,.11,250.05,.13,240.14,.05,214.78
2019.02.13-17:00,2.38,290.51,2.65,290.07,2.59,289.49,2.42,290.92,2.24,289.17,1.80,283.18,1.63,277.13,1.61,272.69,1.60,273.59,1.48,276.12,1.32,278.88,.79,284.70,.16,273.70,.13,230.07,.14,223.22,.06,204.18
2019.02.13-18:00,2.13,286.87,2.47,288.45,2.50,289.10,2.29,290.61,2.16,290.45,1.77,283.44,1.62,279.58,1.61,273.61,1.60,274.64,1.46,277.05,1.31,281.85,.81,287.73,.19,258.05,.18,225.31,.19,218.62,.08,206.31
2019.02.13-19:00,1.89,281.25,2.23,285.80,2.31,288.28,2.12,288.49,2.00,289.81,1.72,282.89,1.61,281.26,1.62,274.76,1.59,275.83,1.45,278.01,1.29,284.73,.80,291.19,.25,254.25,.24,231.82,.23,225.16,.09,216.56
2019.02.13-20:00,1.81,276.13,2.07,282.23,2.18,286.62,2.05,285.34,1.91,287.16,1.71,281.82,1.63,281.31,1.64,275.89,1.60,276.64,1.43,278.64,1.26,287.05,.75,293.97,.29,254.29,.27,238.51,.26,231.98,.10,225.82
2019.02.13-21:00,1.85,273.59,2.03,279.62,2.12,284.99,2.06,282.73,1.90,284.22,1.74,280.98,1.68,280.50,1.66,277.11,1.60,277.02,1.41,278.82,1.21,288.06,.68,294.97,.32,254.86,.29,243.74,.26,237.12,.10,233.13
2019.02.13-22:00,1.92,273.75,2.07,279.29,2.12,284.27,2.13,281.42,1.95,282.27,1.79,280.68,1.75,279.89,1.67,278.26,1.61,277.08,1.39,278.72,1.15,287.61,.59,293.42,.33,254.88,.29,246.91,.25,239.58,.09,237.73
2019.02.13-23:00,2.00,276.09,2.13,281.07,2.18,284.53,2.23,281.33,2.03,281.55,1.85,280.63,1.81,280.12,1.66,279.20,1.61,277.12,1.37,278.51,1.10,286.07,.50,288.54,.33,254.45,.27,248.29,.23,239.18,.08,239.59
2019.02.13-24:00,2.09,279.11,2.19,283.76,2.26,285.27,2.32,282.14,2.10,281.86,1.91,280.80,1.86,281.34,1.64,280.16,1.61,277.60,1.35,278.31,1.05,284.04,.45,279.64,.32,253.84,.25,248.01,.20,235.71,.07,237.28
2019.02.14-01:00,2.21,281.65,2.27,286.38,2.34,285.94,2.36,283.54,2.13,282.48,1.95,281.21,1.87,283.25,1.62,281.39,1.60,278.60,1.34,278.14,1.01,282.05,.44,268.82,.32,253.47,.23,246.31,.18,229.38,.06,229.26
2019.02.14-02:00,2.33,283.17,2.35,288.27,2.42,286.23,2.35,285.01,2.11,282.38,1.95,281.67,1.84,285.36,1.59,282.70,1.57,279.90,1.34,278.11,.99,280.22,.49,260.60,.33,254.56,.21,245.53,.17,223.39,.05,219.18
2019.02.14-03:00,2.42,284.01,2.41,289.28,2.48,287.04,2.32,286.60,2.10,282.16,1.92,282.39,1.79,287.12,1.54,283.79,1.54,281.14,1.33,278.04,.98,278.20,.56,256.61,.33,256.95,.20,246.91,.16,219.87,.05,210.98
2019.02.14-04:00,2.50,285.04,2.46,289.26,2.49,289.02,2.30,288.41,2.13,283.02,1.89,283.45,1.75,288.13,1.50,284.36,1.50,282.02,1.31,277.70,.97,275.81,.64,255.87,.35,259.66,.19,249.52,.16,218.83,.05,206.23
2019.02.14-05:00,2.56,286.30,2.50,288.43,2.44,290.54,2.29,289.64,2.15,284.39,1.87,284.49,1.73,288.71,1.48,284.56,1.46,282.61,1.30,277.31,.97,273.54,.71,257.21,.36,261.73,.19,250.64,.17,217.65,.06,202.97
2019.02.14-06:00,2.51,287.32,2.48,288.48,2.34,290.30,2.25,290.04,2.14,285.73,1.86,285.19,1.71,289.41,1.47,284.79,1.44,283.11,1.30,277.31,1.00,272.18,.77,259.74,.38,262.72,.20,249.36,.20,217.78,.07,202.69
2019.02.14-07:00,2.39,287.24,2.41,288.33,2.24,288.35,2.17,289.13,2.13,286.68,1.86,285.44,1.68,290.08,1.46,284.99,1.41,283.27,1.30,277.51,1.03,271.88,.82,262.70,.41,263.69,.23,247.95,.24,219.94,.09,206.05
2019.02.14-08:00,2.28,285.62,2.34,286.80,2.19,285.41,2.11,286.87,2.11,286.90,1.87,285.74,1.65,290.07,1.45,284.58,1.40,282.69,1.30,277.21,1.06,271.90,.85,265.65,.44,265.63,.25,247.62,.28,222.31,.10,209.69
2019.02.14-09:00,2.18,283.08,2.25,284.66,2.18,282.70,2.08,284.17,2.09,286.26,1.88,285.98,1.64,289.22,1.47,283.18,1.42,281.47,1.31,276.22,1.08,271.90,.86,268.82,.44,268.89,.26,248.63,.30,224.42,.10,212.75
2019.02.14-10:00,2.12,281.75,2.16,283.95,2.21,281.97,2.10,282.30,2.09,285.38,1.89,285.87,1.64,287.86,1.51,281.16,1.47,280.18,1.34,275.01,1.09,271.83,.85,271.81,.42,272.24,.25,248.28,.30,224.08,.10,213.10
2019.02.14-11:00,2.04,283.47,2.08,286.17,2.22,283.57,2.14,281.91,2.10,284.91,1.91,285.35,1.64,286.19,1.56,279.43,1.53,279.32,1.38,274.24,1.10,271.52,.82,274.11,.38,274.49,.22,244.94,.29,221.55,.10,211.08
2019.02.14-12:00,1.96,288.46,2.00,290.14,2.21,286.15,2.20,283.23,2.12,284.93,1.92,284.98,1.63,284.42,1.60,278.50,1.56,278.75,1.41,274.10,1.10,270.85,.79,275.59,.35,275.33,.20,240.19,.28,219.61,.09,209.44
2019.02.14-13:00,1.90,291.59,1.95,291.65,2.21,288.06,2.26,285.25,2.13,285.18,1.91,285.32,1.61,282.92,1.62,278.39,1.57,278.37,1.45,274.73,1.10,270.34,.75,276.30,.31,275.37,.18,234.36,.27,217.65,.09,207.40
2019.02.14-14:00,1.88,290.31,1.97,289.43,2.23,289.20,2.30,286.56,2.15,285.71,1.87,286.24,1.60,281.82,1.62,278.60,1.58,278.26,1.46,275.91,1.11,270.30,.71,276.45,.27,274.92,.16,227.43,.25,215.56,.08,204.00
2019.02.14-15:00,1.87,286.99,1.99,286.99,2.26,289.84,2.35,287.33,2.17,286.66,1.84,287.35,1.60,281.36,1.61,278.91,1.56,278.44,1.45,277.01,1.11,270.88,.69,276.58,.23,273.41,.14,219.55,.24,213.57,.07,199.97
2019.02.14-16:00,1.83,285.33,1.95,286.07,2.26,290.35,2.38,288.73,2.18,287.91,1.81,288.51,1.60,281.72,1.59,279.25,1.53,278.86,1.42,277.93,1.12,272.37,.67,277.16,.21,269.20,.14,211.54,.23,211.58,.07,196.27
2019.02.14-17:00,1.76,285.53,1.87,285.89,2.21,290.63,2.36,290.80,2.18,288.93,1.79,289.30,1.60,282.58,1.58,279.49,1.50,279.47,1.40,278.99,1.12,274.82,.66,278.70,.19,263.14,.15,207.41,.22,210.87,.07,195.28
2019.02.14-18:00,1.74,285.44,1.87,285.28,2.19,289.97,2.32,292.37,2.19,289.61,1.78,289.41,1.62,283.29,1.59,279.69,1.47,280.08,1.37,280.27,1.11,277.66,.63,280.99,.18,255.79,.16,206.37,.23,211.03,.07,196.59
2019.02.14-19:00,1.76,283.89,1.91,284.19,2.18,288.89,2.26,292.72,2.18,290.34,1.78,288.95,1.64,283.65,1.60,280.13,1.45,280.69,1.35,281.53,1.09,280.15,.61,283.15,.20,250.07,.19,210.77,.24,214.68,.08,202.17
2019.02.14-20:00,1.80,281.27,1.93,282.52,2.17,288.10,2.19,291.99,2.13,291.06,1.78,288.01,1.65,283.55,1.61,280.88,1.43,281.07,1.32,282.27,1.07,281.39,.60,284.34,.24,248.61,.22,219.79,.26,222.59,.08,211.79